Flag for Germany Weather past 2 weeks in Hanau, Hesse, Germany

Now
50 °F

Light rain. Mostly cloudy.


Feels Like: 46 °F
Forecast: 35 / 61 °F
Wind: 9 mph from Northwest

Location: Frankfurt-M-Flughafen Airport


UV Index: 0 (Low)

Visibility: N/A


Pressure: 29.83 "Hg

Humidity: 76%

Dew point: 43 °F

Location of HanauLocation

Historic Weather in Hanau

°F

Hanau temperature yesterday

Maximum temperature yesterday: 63 °F (at 3:50 PM)
Minimum temperature yesterday: 36 °F (at 3:50 AM)
Average temperature yesterday: 49 °F

Past Weeks' High & Low Weather Summary

 TemperatureHumidityPressure
High72 °F (Apr 3, 4:20 PM)100% (Apr 5, 12:50 AM)30.42 "Hg (Apr 5, 12:50 AM)
Low32 °F (Apr 16, 5:20 AM)25% (Apr 17, 5:50 PM)29.65 "Hg (Apr 3, 5:20 AM)
Average55 °F61%30.05 "Hg
* Reported Apr 3 5:20 AM — Apr 18 5:20 AM, Hanau, Weather by CustomWeather, © 2014

Note: Actual official high and low records may vary slightly from our data, if they occured in-between our weather recording intervals... More about our weather records

Advertising

Historic Weather Conditions — Data for Previous 24 hours

 ConditionsComfort  
Time TempWeatherWind HumidityBarometerVisibility
5:20 AM
Apr 18
48 °FLight rain. Overcast.6 mph82%29.83 "HgN/A
4:50 AM48 °FLight rain. Mostly cloudy.2 mph82%29.83 "HgN/A
4:20 AM46 °FLight rain. Mostly cloudy.6 mph87%29.86 "HgN/A
3:50 AM46 °FLight rain. Mostly cloudy.2 mph82%29.86 "HgN/A
3:20 AM50 °FLight rain. Mostly cloudy.2 mph58%29.86 "HgN/A
2:50 AM50 °FLight rain. Mostly cloudy.3 mph54%29.86 "HgN/A
2:20 AM50 °FLight rain. Mostly cloudy.3 mph54%29.89 "HgN/A
1:20 AM50 °FClear.3 mph47%29.89 "Hg10 mi
12:50 AM48 °FClear.2 mph54%29.89 "Hg10 mi
12:20 AM48 °FClear.1 mph50%29.92 "Hg10 mi
11:50 PM
Apr 17
48 °FClear.2 mph54%29.92 "Hg10 mi
11:20 PM48 °FClear.1 mph50%29.95 "Hg10 mi
10:50 PM48 °FClear.2 mph50%29.95 "Hg10 mi
10:20 PM50 °FClear.2 mph47%29.95 "Hg10 mi
9:50 PM50 °FClear.2 mph43%29.98 "Hg10 mi
9:20 PM52 °FSunny.3 mph38%29.98 "Hg10 mi
8:50 PM57 °FSunny.3 mph31%29.98 "Hg10 mi
8:20 PM57 °FSunny.5 mph31%29.98 "Hg10 mi
7:50 PM59 °FSunny.6 mph27%30.01 "Hg10 mi
6:50 PM61 °FSunny.10 mph25%30.04 "Hg10 mi
6:20 PM63 °FSunny.9 mph25%30.04 "Hg10 mi
5:50 PM63 °FSunny.5 mph25%30.04 "Hg10 mi
5:20 PM63 °FPassing clouds.7 mph27%30.07 "HgN/A
4:50 PM61 °FPassing clouds.7 mph31%30.07 "HgN/A
4:20 PM61 °FSunny.7 mph27%30.07 "Hg10 mi
3:50 PM63 °FPassing clouds.5 mph27%30.09 "HgN/A
3:20 PM61 °FSunny.3 mph27%30.12 "Hg10 mi
2:50 PM59 °FSunny.5 mph34%30.12 "Hg10 mi
2:20 PM59 °FSunny.3 mph29%30.15 "Hg10 mi
1:50 PM59 °FPassing clouds.7 mph29%30.18 "HgN/A
1:20 PM57 °FPassing clouds.6 mph29%30.18 "HgN/A
12:50 PM57 °FPassing clouds.5 mph29%30.21 "HgN/A
12:20 PM55 °FSunny.3 mph31%30.21 "Hg10 mi
11:50 AM55 °FSunny.3 mph36%30.24 "Hg10 mi
11:20 AM54 °FSunny.3 mph38%30.27 "Hg10 mi
10:50 AM54 °FSunny.2 mph41%30.27 "Hg10 mi
10:20 AM50 °FSunny.3 mph43%30.27 "Hg10 mi
9:20 AM46 °FPassing clouds.5 mph53%30.30 "HgN/A
8:50 AM45 °FSunny.6 mph57%30.30 "Hg10 mi
8:20 AM41 °FSunny.8 mph66%30.30 "Hg10 mi
7:50 AM41 °FSunny.8 mph66%30.30 "Hg10 mi
7:20 AM39 °FClear.8 mph70%30.30 "Hg10 mi
6:50 AM36 °FClear.6 mph81%30.30 "Hg10 mi
6:20 AM36 °FClear.6 mph81%30.30 "Hg10 mi
Weather by CustomWeather, © 2014

See weather overview